Terug naar catalogus

STARLINK-37525

ActiefCommunicatieVLEO
NORAD 69462·PAYLOAD·🇺🇸 United States

Gelanceerd Jun 8, 2026 vanaf Cape Canaveral Space Force Station

Loading…

Volgende Passages (komende 24 uur)

TLE

VersSource: CelesTrak SupGP

Epoch: Sep 15, 2026, 04:32 UTC

1 69462C 26127V   26258.18937500 -.00007755  00000+0 -22918-3 0  2589
2 69462  53.1573 190.7023 0001305  87.8577 301.4427 15.34386779    11

Volg STARLINK-37525 in realtime met AllMySat

Download on the App Store